Regional Weather Roundup
Issued by NWS

Home | Current Version | Previous Version | Graphics & Text | Print | Product List | Glossary On
Versions: 1 2 3 4 5 6 7 8 9 10 11 12 13 14 15 16 17 18 19 20 21 22 23 24 25 26 27 28 29 30 31 32 33 34 35 36 37 38 39 40 41 42 43 44 45 46 47 48 49 50
000
ASUS43 KDTX 160801
RWRMI
MICHIGAN HOURLY REGIONAL WEATHER ROUNDUP
NATIONAL WEATHER SERVICE DETROIT/PONTIAC MI
300 AM EST TUE JAN 16 2018

NOTE: "FAIR" INDICATES FEW OR NO CLOUDS BELOW 12,000 FEET WITH NO
SIGNIFICANT WEATHER AND/OR OBSTRUCTION TO VISIBILITY.

MIZ047>049-052>055-059>063-066>070-074>076-081>083-160900-
SOUTHEAST LOWER MICHIGAN

CITY           SKY/WX    TMP DP  RH WIND       PRES   REMARKS
ADRIAN         CLOUDY    13   8  81 W10       30.32R WCI   0
ALMA           FAIR       9   8  94 CALM      30.31R
ANN ARBOR      CLOUDY    16  12  84 SW13      30.30R WCI   2
BAD AXE        CLOUDY     6   3  87 CALM      30.29R
CARO           CLOUDY    11   9  91 CALM      30.30R FOG
DETROIT CITY   CLOUDY    20  16  84 SW7       30.30R WCI  11
DETROIT        CLOUDY    17  13  84 SW12      30.31S WCI   4
FLINT          LGT SNOW  11   8  88 CALM      30.29R FOG
GROSSE ILE     CLOUDY    15  12  87 W7        30.31R WCI   5
HILLSDALE      LGT SNOW  10   5  79 W9        30.28R WCI  -2
HOWELL         LGT SNOW  18  17  94 W6        30.27R WCI  10

CITY           SKY/WX    TMP DP  RH WIND       PRES   REMARKS
JACKSON        FLURRIES  12   7  80 SW10      30.29R WCI  -1
LAMBERTVILLE   LGT SNOW  13   8  83 SW7       30.34R WCI   2
LANSING        LGT SNOW  15  14  95 CALM      30.29R FOG
LAPEER         CLOUDY     2  -1  86 CALM      30.28S
MASON          FLURRIES  16  10  78 SW3       30.29R
MONROE         CLOUDY    15  10  80 SW13      30.32R WCI   2
MT. CLEMENS    FLURRIES  19  19  99 N3        30.27S
PONTIAC        LGT SNOW  18  17  96 CALM      30.25S FOG
PORT HOPE        N/A     19  15  84 W3        30.28R
PORT HURON     CLOUDY    12   9  85 CALM      30.30R
TRI CITIES     FAIR      10   9  95 N6        30.31S FOG     WCI   0
MIDLAND        LGT SNOW   2  -3  83 CALM      30.31S
TROY           LGT SNOW  21  19  91 CALM      30.30S
SAGINAW HB     LGT SNOW   9   7  92 CALM      30.31R
$$
MIZ043>046-050>051-056>058-064>065-071>073-077>080-160900-
SOUTHWEST LOWER MICHIGAN

CITY           SKY/WX    TMP DP  RH WIND       PRES   REMARKS
BATTLE CREEK   CLOUDY    10   6  84 SW9       30.30R WCI  -3
BENTON HARBOR  LGT SNOW   8   3  80 S10       30.33R WCI  -6
BIG RAPIDS     LGT SNOW  11   7  85 CALM      30.29S
COLDWATER      FLURRIES   8   5  84 W12       30.33R WCI  -7
FREMONT        CLOUDY    13   8  81 NE3       30.30R
HOLLAND        LGT SNOW  16  12  84 S5        30.29R FOG     WCI   9
GRAND RAPIDS   LGT SNOW  16  13  88 E3        30.29R FOG
IONIA          LGT SNOW  13  11  94 NE3       30.29R
KALAMAZOO      CLOUDY    10   5  80 SW10      30.32R WCI  -4
LUDINGTON      CLOUDY    11   9  92 CALM      30.34R
MARSHALL       FLURRIES  10   5  82 SW6       30.30R WCI   0
MOUNT PLEASANT LGT SNOW   9   5  84 CALM      30.30R
MUSKEGON       FAIR      10   7  87 NE5       30.32R WCI   2
SOUTH HAVEN    FLURRIES  12   7  81 S9        30.31R WCI   0
$$
MIZ016>042-160900-
NORTHERN LOWER MICHIGAN

CITY           SKY/WX    TMP DP  RH WIND       PRES   REMARKS
ALPENA         LGT SNOW  19  16  88 NE12      30.33R FOG     WCI   7
BEAVER ISLAND  FAIR      13   9  83 NE8       30.40R WCI   2
BELLAIRE       CLOUDY    15  14  95 N3        30.36R
CADILLAC       LGT SNOW   5   2  88 CALM      30.26R
CHARLEVOIX     CLOUDY    17  13  83 NE7       30.40R WCI   8
FRANKFORT      FAIR      13  11  92 CALM      30.35R
GAYLORD        LGT SNOW  12  12 100 NE9       30.28R FOG     WCI   0
GRAYLING         N/A     11   7  86 N6        30.29R WCI   1
HARBOR SPRINGS MOCLDY    13  10  85 N7        30.37R WCI   3
HOUGHTON LAKE  CLOUDY     9   6  88 N3        30.28R
MANISTEE       LGT SNOW   6   3  87 CALM      30.34R FOG
OSCODA         LGT SNOW  17  14  87 NW6       30.29R WCI   9
PELLSTON       LGT SNOW  11   8  88 N9        30.38R FOG     WCI  -2
ROGERS CITY    LGT SNOW  18  14  86 NE8       30.36S WCI   7
TRAVERSE CITY  MOCLDY    19  13  77 NE8       30.34R WCI   9
$$
MIZ007>008-015-160900-
EASTERN UPPER MICHIGAN

CITY           SKY/WX    TMP DP  RH WIND       PRES   REMARKS
KINROSS        MOCLDY     8   5  87 N6        30.40R WCI  -2
MACKINAC ISLAN CLOUDY    13   8  79 NE13      30.38R WCI  -1
NEWBERRY       FLURRIES   8   7  98 N3        30.39R
S. S. MARIE    CLOUDY    13   6  74 N5        30.40R WCI   5
MUNISING         N/A      3   1  91 S8        30.43S WCI -10
$$
MIZ004>006-011>014-085-160900-
CENTRAL UPPER MICHIGAN

CITY           SKY/WX    TMP DP  RH WIND       PRES   REMARKS
MANISTIQUE     FAIR       5   4  94 N5        30.42R WCI  -4
ESCANABA       FAIR      10   7  87 N5        30.43R WCI   2
MENOMINEE      FAIR      13   9  84 N10       30.41R WCI   0
SAWYER-GWINN   LGT SNOW   8   6  88 CALM      30.40R
$$
MIZ001>003-009>011-084-160900-
WESTERN UPPER MICHIGAN

CITY           SKY/WX    TMP DP  RH WIND       PRES   REMARKS
IRON MOUNTAIN  CLOUDY     1  -5  75 NW3       30.40R
HOUGHTON       LGT SNOW  20  14  77 NE6       30.44S VSB 3/4 WCI  12
COPPER HARBOR    N/A     22  16  78 E12G18    30.47S WCI  10
IRONWOOD       LGT SNOW   6   4  91 CALM      30.46R FOG
$$

ABBREVIATIONS USED IN REMARKS
   TC - TEMPERATURE IN CELSIUS
  WCI - WIND CHILL INDEX
   HX - HEAT INDEX
  VSB - VISIBILITY





USA.gov is the U.S. government's official web portal to all federal, state and local government web resources and services.